CW3847 La Orotava ES current weather conditions

sailwx.info

Wind from 325 at 2 knots gusting 3

Air temperature 23.3° C
Dewpoint 17.3° C

Last reported at 2014-Sep-21 17:37 UTC.
Time now 2014-Sep-21 18:14 UTC

Location: N 28°23' W 016°31'.
View on Google Maps.

See reports from other nearby stations

  
Tides and Currents Weather Stations Pressure Air Temp Water Temp Dewpoint Dewpoint Depression Visibility Wind Speed Wind Dir Waves Ship Positions
date/time (UTC)wind fromknots sea level pressurealtimeterstation pressurevisibilityair tempwater tempwave heightnotes
2014-Sep-21 17:37 325 2 gusting 3 23.3
2014-Sep-21 17:27 350 1 gusting 3 23.3
2014-Sep-21 17:17 340 2 gusting 3 23.3
2014-Sep-21 16:57 013 5 gusting 6 23.3
2014-Sep-21 16:47 355 2 gusting 4 23.3
2014-Sep-21 16:37 325 3 gusting 6 23.3
2014-Sep-21 16:27 346 2 gusting 3 23.9
2014-Sep-21 16:07 317 2 gusting 2 23.3
2014-Sep-21 15:47 332 2 gusting 6 23.3
2014-Sep-21 15:27 264 1 gusting 4 23.3
2014-Sep-21 15:17 315 3 gusting 6 23.3
2014-Sep-21 15:07 015 2 gusting 3 23.3
2014-Sep-21 14:47 336 3 gusting 7 23.9
2014-Sep-21 14:37 030 4 gusting 7 23.9
2014-Sep-21 14:17 326 2 gusting 6 23.9
2014-Sep-21 14:07 015 3 gusting 8 23.9
2014-Sep-21 13:57 315 2 gusting 6 24.4
2014-Sep-21 13:47 307 6 gusting 7 24.4
2014-Sep-21 13:28 355 4 gusting 7 23.9
2014-Sep-21 13:18 340 3 gusting 6 23.9
2014-Sep-21 12:58 355 2 gusting 5 23.9
2014-Sep-21 12:18 269 2 gusting 5 23.3
2014-Sep-21 12:08 344 2 gusting 6 23.9
2014-Sep-21 11:38 319 4 gusting 6 23.3
2014-Sep-21 11:28 019 6 gusting 6 23.9
2014-Sep-21 11:18 323 3 gusting 8 23.9
2014-Sep-21 10:48 063 23.9
2014-Sep-21 09:48 013 3 gusting 4 22.2
2014-Sep-21 09:28 016 2 gusting 2 22.2
2014-Sep-21 09:08 039 2 gusting 2 22.2
2014-Sep-21 08:58 304 0 gusting 2 22.2
2014-Sep-21 08:28 182 1 gusting 2 20.6
2014-Sep-21 08:18 174 0 gusting 2 20.0
2014-Sep-21 08:08 149 2 gusting 4 18.9
2014-Sep-21 07:58 162 1 gusting 4 18.3
2014-Sep-21 07:48 160 3 gusting 4 18.3
2014-Sep-21 07:38 169 4 gusting 4 18.3
2014-Sep-21 07:28 180 3 gusting 5 18.3
2014-Sep-21 06:58 168 3 gusting 4 18.3
2014-Sep-21 06:48 194 2 gusting 5 17.8
2014-Sep-21 06:38 163 2 gusting 4 18.3
2014-Sep-21 06:28 176 2 gusting 5 18.3
2014-Sep-21 05:58 181 2 gusting 6 18.3
2014-Sep-21 05:38 160 4 gusting 5 18.3
2014-Sep-21 05:28 158 2 gusting 4 17.8
2014-Sep-21 05:18 168 2 gusting 3 17.8
2014-Sep-21 05:08 188 2 gusting 3 17.8
2014-Sep-21 04:58 159 2 gusting 4 17.8
2014-Sep-21 04:48 151 2 gusting 3 18.3
2014-Sep-21 04:38 184 2 gusting 4 18.3
2014-Sep-21 04:28 169 2 gusting 2 18.3
2014-Sep-21 04:18 178 2 gusting 2 18.9
2014-Sep-21 03:48 173 2 gusting 4 18.9
2014-Sep-21 03:28 169 5 gusting 6 18.9
2014-Sep-21 03:08 167 2 gusting 3 18.9
2014-Sep-21 02:58 176 2 gusting 4 18.9
2014-Sep-21 02:18 205 1 gusting 4 19.4
2014-Sep-21 01:48 173 3 gusting 6 18.9
2014-Sep-21 01:18 169 3 gusting 4 18.9
2014-Sep-21 00:58 173 0 gusting 3 18.9
2014-Sep-21 00:38 182 1 gusting 6 19.4
2014-Sep-21 00:28 173 3 gusting 3 19.4
2014-Sep-21 00:18 183 2 gusting 3 19.4
2014-Sep-21 00:08 178 2 gusting 3 19.4
2014-Sep-20 23:38 172 2 gusting 4 19.4
2014-Sep-20 23:08 178 0 gusting 3 19.4
2014-Sep-20 22:58 166 0 gusting 4 19.4
2014-Sep-20 22:48 162 2 gusting 3 19.4
2014-Sep-20 22:38 178 2 gusting 3 19.4
2014-Sep-20 22:28 161 0 gusting 3 19.4
2014-Sep-20 21:58 175 2 gusting 3 18.9
2014-Sep-20 21:48 171 3 gusting 3 19.4
2014-Sep-20 21:38 163 3 gusting 4 19.4
2014-Sep-20 21:28 179 2 gusting 2 19.4
2014-Sep-20 21:18 170 3 gusting 3 19.4
2014-Sep-20 21:08 206 1 gusting 2 20.0
2014-Sep-20 20:48 177 1 gusting 2 20.0
2014-Sep-20 20:28 343 20.6
2014-Sep-20 20:08 044 0 gusting 0 20.6
2014-Sep-20 19:58 044 20.6
2014-Sep-20 19:28 355 0 gusting 2 20.6
2014-Sep-20 19:18 360 1 gusting 2 20.6
2014-Sep-20 19:08 348 2 gusting 2 20.6
2014-Sep-20 18:58 005 0 gusting 1 21.1
2014-Sep-20 18:38 037 1 gusting 2 21.1
2014-Sep-20 18:18 355 1 gusting 2 21.1
2014-Sep-20 17:38 333 1 gusting 3 21.7
2014-Sep-20 17:28 355 2 gusting 3 21.7
2014-Sep-20 17:18 340 3 gusting 3 21.7
2014-Sep-20 17:08 005 0 gusting 2 21.7
2014-Sep-20 16:58 299 1 gusting 2 21.7
2014-Sep-20 16:08 355 3 gusting 6 21.7
2014-Sep-20 15:48 331 3 gusting 3 21.7
2014-Sep-20 15:38 355 2 gusting 6 21.7
2014-Sep-20 15:28 320 3 gusting 7 22.2
2014-Sep-20 15:18 347 4 gusting 8 22.2
2014-Sep-20 15:08 042 2 gusting 6 22.2
2014-Sep-20 14:58 265 2 gusting 3 22.2
2014-Sep-20 14:48 031 1 gusting 5 22.2
2014-Sep-20 14:38 042 22.2
2014-Sep-20 14:18 350 2 gusting 6 22.2
2014-Sep-20 13:48 019 2 gusting 6 23.3
2014-Sep-20 13:38 342 2 gusting 6 23.3
2014-Sep-20 13:18 335 3 gusting 8 23.3
2014-Sep-20 13:08 338 4 gusting 6 23.3
2014-Sep-20 12:58 285 6 gusting 7 23.3
2014-Sep-20 12:28 326 2 gusting 3 23.3
2014-Sep-20 11:48 108 2 gusting 5 23.3
2014-Sep-20 11:38 331 2 gusting 6 22.8
2014-Sep-20 11:28 016 2 gusting 6 22.8
2014-Sep-20 11:08 334 2 gusting 6 22.2
2014-Sep-20 10:58 355 2 gusting 4 22.2
2014-Sep-20 10:48 348 4 gusting 6 22.2
2014-Sep-20 10:38 325 4 gusting 6 22.2
2014-Sep-20 10:28 005 2 gusting 6 22.2
2014-Sep-20 10:18 342 2 gusting 6 22.2
2014-Sep-20 10:08 009 2 gusting 2 22.2
2014-Sep-20 09:28 036 1 gusting 2 22.2
2014-Sep-20 08:58 109 22.8
2014-Sep-20 08:48 142 1 gusting 2 21.7
2014-Sep-20 08:38 196 0 gusting 0 20.6
2014-Sep-20 08:08 150 2 gusting 3 18.3
2014-Sep-20 07:58 160 2 gusting 3 17.8
2014-Sep-20 07:48 166 3 gusting 4 17.8
2014-Sep-20 07:38 153 2 gusting 3 17.8
2014-Sep-20 07:08 140 2 gusting 4 17.8
2014-Sep-20 06:48 176 2 gusting 4 18.3
2014-Sep-20 06:38 170 1 gusting 4 18.3
2014-Sep-20 06:18 161 2 gusting 3 18.3
2014-Sep-20 05:28 161 4 gusting 4 17.8
2014-Sep-20 05:08 159 4 gusting 5 17.8
2014-Sep-20 04:48 177 2 gusting 4 17.8
2014-Sep-20 04:38 177 5 gusting 5 17.8
2014-Sep-20 04:18 159 2 gusting 3 17.8
2014-Sep-20 04:08 172 2 gusting 2 17.8
2014-Sep-20 03:38 171 3 gusting 4 17.8
2014-Sep-20 03:28 172 3 gusting 4 17.8
2014-Sep-20 03:08 177 2 gusting 4 17.8
2014-Sep-20 02:58 163 1 gusting 4 17.8
2014-Sep-20 02:18 165 2 gusting 3 17.8
2014-Sep-20 02:08 163 1 gusting 3 17.8
2014-Sep-20 01:48 176 1 gusting 4 17.8
2014-Sep-20 00:38 165 2 gusting 4 17.8
2014-Sep-20 00:28 171 3 gusting 4 17.8
2014-Sep-19 23:58 168 4 gusting 6 17.8
2014-Sep-19 23:28 178 2 gusting 6 17.8
2014-Sep-19 23:08 159 2 gusting 4 18.3
2014-Sep-19 22:58 181 2 gusting 3 18.3
2014-Sep-19 22:28 186 2 gusting 4 18.3
2014-Sep-19 22:18 157 1 gusting 3 18.3
2014-Sep-19 22:08 168 2 gusting 3 18.3
2014-Sep-19 21:48 163 2 gusting 3 18.9
2014-Sep-19 21:38 164 1 gusting 3 18.9
2014-Sep-19 21:28 173 1 gusting 2 18.9
2014-Sep-19 21:18 161 1 gusting 3 18.9
2014-Sep-19 21:08 179 0 gusting 2 18.9
2014-Sep-19 20:58 163 2 gusting 6 18.9
2014-Sep-19 20:48 187 1 gusting 2 19.4
2014-Sep-19 20:28 146 2 gusting 2 19.4
2014-Sep-19 20:18 009 0 gusting 0 19.4
2014-Sep-19 19:28 355 1 gusting 2 20.0
2014-Sep-19 19:18 340 0 gusting 2 20.0
2014-Sep-19 18:48 360 2 gusting 3 20.6
2014-Sep-19 18:38 355 1 gusting 1 20.6
2014-Sep-19 18:28 038 0 gusting 2 20.6
2014-Sep-19 18:08 040 20.6